Home > Weather > Vista > Past weeks

Flag for USA Past Weather in Vista, California, USA — Yesterday and Last 2 Weeks

Now
72 °F

Sunny.


Feels Like: 73 °F
Forecast: 64 / 82 °F
Wind: 7 mph from Southwest

Location: McClellan-Palomar Airport

Current Time: Jun 29, 2016 at 4:46:46 PM

Latest Report: Jun 29, 2016 at 3:53 PM


Visibility: 10 mi

Pressure: 29.86 "Hg

Humidity: 76%

Dew Point: 64 °F

Location of VistaLocation

Past Weather in Vista — Graph

°F

Vista Temperature Yesterday

Maximum temperature yesterday: 74 °F (at 1:02 PM)
Minimum temperature yesterday: 66 °F (at 5:53 AM)
Average temperature yesterday: 69 °F

High & Low Weather Summary for the Past Weeks

 TemperatureHumidityPressure
High84 °F (Jun 20, 10:53 AM)96% (Jun 22, 4:53 AM)30.02 "Hg (Jun 22, 4:53 AM)
Low59 °F (Jun 16, 2:53 AM)38% (Jun 19, 10:53 AM)29.81 "Hg (Jun 20, 5:53 AM)
Average69 °F75%29.92 "Hg
* Reported Jun 14 2:53 PM — Jun 29 2:53 PM, Vista, Weather by CustomWeather, © 2016

Note: Actual official high and low records may vary slightly from our data, if they occured in-between our weather recording intervals... More about our weather records

Advertising

Vista Weather History for the Previous 24 Hours

Scroll right to see more
 ConditionsComfort  
Time TempWeatherWind HumidityBarometerVisibility
2:53 PM
Wed, Jun 29
73 °FSunny.8 mph74%29.87 "Hg10 mi
1:53 PM73 °FSunny.10 mph74%29.88 "Hg10 mi
12:53 PM74 °FSunny.10 mph74%29.89 "Hg10 mi
11:53 AM75 °FPassing clouds.8 mph71%29.90 "Hg10 mi
11:01 AM73 °FPassing clouds.6 mph76%29.91 "Hg7 mi
10:53 AM73 °FSunny.6 mph76%29.90 "Hg8 mi
10:02 AM72 °FScattered clouds.9 mph78%29.91 "Hg8 mi
9:53 AM73 °FPartly sunny.6 mph76%29.90 "Hg8 mi
8:53 AM71 °FScattered clouds.No wind78%29.91 "Hg6 mi
7:53 AM68 °FFog.No wind87%29.90 "Hg6 mi
6:53 AM67 °FFog.3 mph90%29.90 "Hg6 mi
5:53 AM66 °FLow clouds.No wind93%29.89 "Hg8 mi
4:53 AM67 °FLow clouds.No wind87%29.89 "Hg10 mi
3:53 AM66 °FLow clouds.No wind93%29.89 "Hg7 mi
2:53 AM67 °FLow clouds.3 mph90%29.89 "Hg8 mi
1:53 AM66 °FLow clouds.No wind93%29.89 "Hg8 mi
12:53 AM66 °FLow clouds.5 mph93%29.90 "Hg8 mi
11:53 PM
Tue, Jun 28
67 °FLow clouds.3 mph90%29.91 "Hg8 mi
10:53 PM67 °FPassing clouds.3 mph90%29.90 "Hg8 mi
9:53 PM67 °FLow clouds.No wind93%29.91 "Hg8 mi
8:53 PM67 °FPassing clouds.5 mph90%29.90 "Hg9 mi
7:53 PM68 °FSunny.5 mph87%29.89 "Hg9 mi
6:53 PM69 °FSunny.7 mph84%29.89 "Hg10 mi
5:53 PM71 °FSunny.9 mph78%29.89 "Hg10 mi
4:53 PM72 °FSunny.7 mph76%29.90 "Hg10 mi
Weather by CustomWeather, © 2016

See weather overviewHow to use our weather pages